#timestamp,LO_Frequency,Hit 
1505440815.3,286047004.6,N
1505440835.1,286047003.2,N
1505440855.9,286047003.0,N
1505440875.7,286047005.9,N
1505440895.5,286047004.9,N
1505440915.4,286047006.6,N
1505440935.2,286047002.4,N
1505440955.0,286046997.6,N
1505440955.9,286046997.6,N
1505440975.8,286046996.4,N
1505440995.6,286046994.1,N
1505441015.4,286046990.9,N
1505441035.2,286046988.5,N
1505441055.1,286046992.8,N
1505441056.0,286046992.8,N
1505441075.8,286046995.2,N
1505441095.6,286046997.5,N
1505441115.5,286046995.1,N
1505441135.3,286046992.6,N
1505441155.1,286046991.5,N
1505441175.9,286046987.0,N
1505441195.7,286046993.2,N
1505441215.5,286046994.1,N
1505441235.4,286046992.2,N
1505441255.2,286046993.2,N
1505441275.0,286046994.8,N
1505441275.9,286046994.8,N
1505441295.8,286046996.1,N
1505441315.6,286046987.1,N
1505441335.4,286046986.6,N
1505441355.2,286046991.6,N
1505441375.1,286046990.3,N
1505441376.0,286046990.3,N
1505441395.8,286046992.7,N
1505441415.6,286046994.8,N
1505441435.5,286046994.2,N
1505441455.3,286046996.0,N
1505441475.1,286046992.9,N
1505441495.9,286046992.2,N
1505441515.7,286046995.9,N
1505441535.5,286046996.7,N
1505441555.4,286046998.6,N
1505441575.2,286046996.1,N
1505441595.0,286046993.9,N
1505441595.9,286046993.9,N
1505441615.8,286046990.6,P
1505441635.6,286046995.7,P
1505441655.4,286046995.4,N
1505441675.3,286046998.0,N
1505441695.1,286047000.1,N
1505441696.0,286047000.1,N
1505441715.8,286047003.5,N
1505441735.7,286047001.4,N
1505441755.5,286047002.9,N
1505441775.3,286047003.3,N
1505441795.2,286047003.9,N
1505441815.9,286047007.2,N
1505441835.7,286047006.8,N
1505441855.5,286047010.4,N
1505441875.4,286047004.9,N
1505441895.2,286046998.8,N
1505441915.0,286046994.2,N
1505441915.9,286046994.2,N
1505441935.8,286046996.1,N
1505441955.6,286046996.2,N
1505441975.4,286046996.8,N
1505441995.3,286046993.3,N
1505442015.1,286046999.0,N
1505442035.8,286046999.0,N
1505442055.7,286046999.0,N
1505442075.5,286046990.7,N
1505442095.3,286046986.2,N
1505442115.2,286046984.1,N
1505442135.9,286046987.4,N
1505442155.7,286046996.1,N
1505442175.5,286047001.1,N
1505442195.4,286047002.7,N
1505442215.2,286047003.9,N
1505442235.0,286047007.6,N
1505442235.9,286047007.6,N
1505442255.8,286047006.7,N
1505442275.6,286047006.4,N
1505442295.4,286047011.9,N
1505442315.3,286047010.5,N
1505442335.1,286047007.7,N
1505442355.8,286047006.1,N
1505442375.7,286047009.4,N
1505442395.5,286047008.9,N
1505442415.3,286047012.1,N
1505442435.2,286047012.3,N
1505442455.9,286047014.8,N
1505442475.7,286047012.7,N
1505442495.6,286047012.1,N
1505442515.4,286047009.6,N
1505442535.2,286047009.1,N
1505442555.0,286047007.7,N
1505442556.0,286047007.7,N
1505442575.8,286047006.8,N
1505442595.6,286047009.7,N
1505442615.4,286047009.3,N
1505442635.3,286047013.0,N
1505442655.1,286047013.5,N
1505442675.8,286047015.2,N
1505442695.7,286047013.9,N
1505442715.5,286047009.2,N
1505442735.3,286047012.3,P
1505442755.2,286047000.1,N
1505442775.9,286047000.8,N
1505442795.7,286047001.7,N
1505442815.6,286047002.8,N
1505442835.4,286047003.0,N
1505442855.2,286047006.9,N
1505442875.1,286047006.3,N
1505442876.0,286047006.3,N
1505442895.8,286047006.6,N
1505442915.6,286047002.9,N
1505442935.5,286047002.2,N
1505442955.3,286047002.2,N
1505442975.1,286047002.4,N
1505442995.8,286046998.4,N
1505443015.7,286046999.4,N
1505443035.5,286046995.3,N
1505443055.3,286046996.2,N
1505443075.2,286046991.9,N
1505443095.9,286046995.6,N
1505443115.7,286046998.0,N
1505443135.6,286046995.8,N
1505443155.4,286046994.3,N
1505443175.2,286046994.6,N
1505443195.1,286046991.0,N
1505443196.0,286046991.0,N
1505443215.8,286046989.1,N
1505443235.6,286046987.1,N
1505443255.4,286046989.5,N
1505443275.3,286046993.4,N
1505443295.1,286046995.0,N
1505443315.8,286046996.0,N
1505443335.7,286046994.5,N
1505443355.5,286046997.9,N
1505443375.3,286046994.9,N
1505443395.2,286046995.9,N
1505443415.9,286046995.4,N
1505443435.7,286047000.4,N
1505443455.6,286047001.6,N
1505443475.4,286047001.8,N
1505443495.2,286047002.4,N
1505443515.1,286047000.7,N
1505443516.0,286047000.7,N
1505443535.8,286046999.2,N
1505443555.6,286046994.9,N
1505443575.5,286046998.5,N
1505443595.3,286046999.0,N
1505443615.1,286046999.4,N
1505443635.8,286047002.5,N
1505443655.7,286047003.2,N
1505443675.5,286046999.5,N
1505443695.3,286046996.4,N
1505443715.2,286046995.3,N
1505443735.9,286046999.6,N
1505443755.7,286047000.0,N
1505443775.6,286047002.7,N
1505443795.4,286046998.1,N
1505443815.2,286046997.8,N
1505443835.1,286046995.5,N
1505443836.0,286046995.5,N
1505443855.8,286046993.4,N
1505443875.6,286046992.9,N
1505443895.5,286046992.7,N
1505443915.3,286046990.6,P
1505443935.1,286046994.4,N
1505443955.9,286046996.4,N
1505443975.7,286046995.3,N
1505443995.5,286046994.7,N
1505444015.4,286046993.9,N
1505444035.2,286046995.2,N
1505444055.0,286046995.5,N
1505444055.9,286046995.5,N
1505444075.7,286046996.5,N
1505444095.6,286046989.7,P
1505444115.4,286046990.3,P
1505444135.3,286046993.0,N
1505444155.1,286046992.7,P
1505444156.0,286046992.7,P
1505444175.8,286047006.0,P
1505444195.7,286047005.7,N
1505444215.5,286047006.5,N
1505444235.3,286047010.4,N
1505444255.2,286047011.1,N
1505444275.9,286047013.2,N
1505444295.7,286047011.8,N
1505444315.5,286047010.9,N
1505444335.4,286047012.5,N
1505444355.2,286047016.6,N
1505444375.0,286047016.2,N
1505444375.9,286047016.2,N
1505444395.8,286047018.1,N
